[[{"header":{"parameterUnit":"m.s-1","parameterCategory":1,"la1":30.2991,"la2":30.254,"lo1":-89.0895,"lo2":-89.0444,"dy":0.0017,"dx":0.0017,"nx":28,"ny":28,"refTime":"2024-12-18T03:00:00:Z","depth":0,"parameterNumber":2,"parameterNumberName":"U-component_of_WINDS"},"data":[0,0,0,0,0,0,0,0,0,0,0,0,0,0,0,0,0,0,0,0,0,0,0,0,0,0,0,0,0,0,0,0,0,0,0,0,0,0,0,0,0,0,0,0,0,0,0,0,0,0,0,0,0,0,0,0,0,0,-0.2767,-0.2766,0,-0.2695,-0.2694,-0.2694,-0.2634,-0.2633,-0.2633,-0.2632,-0.2558,-0.2556,-0.2555,0,0,0,0,0,0,0,0,0,0,0,0,0,-0.2854,-0.2852,-0.2767,-0.2766,-0.2765,-0.2695,-0.2694,-0.2693,-0.2634,-0.2633,-0.2633,-0.2632,-0.2558,-0.2556,-0.2555,0,0,0,0,0,0,0,0,0,0,0,0,0,-0.2802,-0.2852,-0.2767,-0.2728,-0.2723,-0.2696,-0.2694,-0.2693,-0.2634,-0.2633,-0.2633,-0.2632,-0.2559,-0.2556,-0.2554,-0.256,0,0,-0.2548,-0.2547,0,0,0,0,0,0,0,0,-0.2805,-0.2799,-0.2734,-0.273,-0.2725,-0.2673,-0.2697,-0.2649,-0.2635,-0.2668,-0.2632,-0.2631,-0.2597,-0.2591,-0.258,-0.2557,-0.2553,-0.2548,-0.2546,-0.2546,-0.2545,0,0,0,0,0,0,0,-0.2809,-0.2802,-0.2739,-0.2733,-0.2728,-0.2713,-0.2705,-0.2688,-0.2638,-0.2665,-0.2661,-0.2653,-0.2594,-0.2582,-0.2578,-0.2552,-0.2548,-0.2546,-0.2545,-0.2544,-0.2532,-0.2533,0,0,0,0,0,0,-0.2819,-0.2805,-0.2741,-0.2737,-0.2764,-0.2712,-0.2703,-0.2691,-0.2638,-0.263,-0.2654,-0.265,-0.2586,-0.258,-0.2575,-0.2579,-0.2546,-0.2544,-0.2542,-0.2531,-0.2533,-0.2534,0,0,0,0,0,0,-0.2821,-0.2813,-0.2744,-0.277,-0.276,-0.2712,-0.2698,-0.269,-0.2678,-0.263,-0.2621,-0.2651,-0.2585,-0.2578,-0.2565,-0.2576,-0.2543,-0.2541,-0.253,-0.2532,-0.2533,-0.2589,0,0,0,0,0,0,-0.2823,-0.2815,-0.2816,-0.277,-0.2759,-0.2735,-0.2699,-0.2689,-0.2674,-0.2669,-0.2625,-0.2616,-0.2584,-0.2568,-0.2563,-0.2573,-0.2539,-0.2529,-0.2531,-0.2533,-0.2585,-0.2592,-0.2597,0,0,0,0,0,-0.2827,-0.2834,-0.2817,-0.2809,-0.276,-0.2736,-0.2729,-0.2692,-0.2675,-0.2677,-0.2647,-0.2618,-0.2576,-0.2567,-0.2561,-0.257,-0.2528,-0.253,-0.2533,-0.2583,-0.259,-0.2597,0,0,0,0,0,0,-0.2882,-0.2827,-0.2807,-0.28,-0.2773,-0.2726,-0.2727,-0.2701,-0.2678,-0.2674,-0.2628,-0.2619,-0.2612,-0.2589,-0.2581,-0.2574,-0.2548,-0.2549,-0.2589,-0.2596,-0.2601,-0.2607,-0.2537,0,0,0,0,0,-0.2893,-0.2879,-0.2832,-0.283,-0.2817,-0.2775,-0.2763,-0.2737,-0.2707,-0.2695,-0.2664,-0.2636,-0.2617,-0.2605,-0.2584,-0.2582,-0.2572,-0.2585,-0.2591,-0.2596,-0.2597,-0.2596,-0.2602,-0.2541,-0.2541,-0.2541,0,0,-0.2916,-0.2885,-0.2878,-0.284,-0.2816,-0.2803,-0.2765,-0.2752,-0.2742,-0.2693,-0.2679,-0.2656,-0.2622,-0.2615,-0.261,-0.2596,-0.2612,-0.2599,-0.2603,-0.2602,-0.2599,-0.2605,-0.261,-0.2542,-0.2542,-0.2542,0,0,-0.2952,-0.2926,-0.2922,-0.29,-0.2864,-0.2836,-0.2836,-0.2793,-0.2775,-0.2761,-0.2725,-0.2712,-0.2679,-0.2657,-0.2641,-0.267,-0.2644,-0.2665,-0.2695,-0.2695,-0.27,-0.2704,-0.2716,-0.272,-0.2666,-0.2667,-0.2667,0,-0.2985,-0.2963,-0.2923,-0.2913,-0.2898,-0.2854,-0.285,-0.283,-0.279,-0.2781,-0.2766,-0.2725,-0.2699,-0.2687,-0.2694,-0.2683,-0.2681,-0.267,-0.2702,-0.2706,-0.2709,-0.272,-0.2725,-0.2669,-0.2669,-0.2669,-0.2669,0,-0.3006,-0.2992,-0.2993,-0.2957,-0.2941,-0.2934,-0.2894,-0.2884,-0.2859,-0.2833,-0.282,-0.2787,-0.276,-0.2755,-0.273,-0.274,-0.2733,-0.2711,-0.2684,-0.2719,-0.2728,-0.2732,-0.2674,-0.2673,-0.2672,-0.2671,0,0,-0.3073,-0.3017,-0.3018,-0.3002,-0.296,-0.2949,-0.294,-0.2914,-0.2907,-0.2881,-0.2874,-0.2848,-0.2827,-0.281,-0.2782,-0.2782,-0.2809,-0.276,-0.2758,-0.2771,-0.282,-0.2839,-0.2844,-0.2791,-0.2792,-0.2792,-0.2824,0,-0.3103,-0.3086,-0.3051,-0.3045,-0.3032,-0.2991,-0.2984,-0.2958,-0.2934,-0.2919,-0.2892,-0.2875,-0.2848,-0.2838,-0.2836,-0.2807,-0.2819,-0.2804,-0.2785,-0.2785,-0.2796,-0.2849,-0.2867,-0.2899,-0.2827,-0.2828,-0.2828,0,-0.3136,-0.3114,-0.3107,-0.3068,-0.3062,-0.3056,-0.303,-0.3017,-0.2987,-0.2969,-0.2951,-0.2921,-0.2911,-0.2886,-0.2872,-0.2863,-0.2853,-0.2838,-0.2838,-0.2836,-0.2809,-0.2849,-0.2907,-0.2913,-0.2833,-0.2833,-0.2833,0,-0.3188,-0.3156,-0.3148,-0.3136,-0.309,-0.3087,-0.3068,-0.3037,-0.3025,-0.3002,-0.2994,-0.2971,-0.2958,-0.2941,-0.2906,-0.2891,-0.2897,-0.2868,-0.2882,-0.2884,-0.2886,-0.2886,-0.2945,-0.2878,-0.2878,-0.2878,-0.2878,0,-0.3225,-0.3223,-0.3171,-0.3167,-0.3164,-0.3124,-0.3121,-0.3098,-0.3072,-0.3063,-0.3025,-0.3017,-0.2971,-0.2958,-0.293,-0.2924,-0.2918,-0.2904,-0.2897,-0.2908,-0.291,-0.2902,-0.2899,-0.2879,-0.2879,-0.2878,-0.2878,0,-0.3283,-0.3248,-0.3237,-0.3196,-0.3185,-0.3185,-0.3149,-0.3143,-0.3117,-0.3106,-0.3101,-0.306,-0.3042,-0.3006,-0.2978,-0.296,-0.2961,-0.2947,-0.2971,-0.2967,-0.2984,-0.2983,-0.304,-0.3046,-0.2974,-0.2975,-0.2975,0,-0.331,-0.3307,-0.3266,-0.3257,-0.324,-0.3226,-0.3214,-0.3174,-0.3163,-0.313,-0.3129,-0.3109,-0.3091,-0.3066,-0.3033,-0.3013,-0.2999,-0.3021,-0.2996,-0.3008,-0.3002,-0.3003,-0.3003,-0.3026,-0.3027,-0.3028,-0.3029,0,-0.3362,-0.3345,-0.3329,-0.3307,-0.3293,-0.3274,-0.3252,-0.3247,-0.3203,-0.3192,-0.3175,-0.3161,-0.3134,-0.3115,-0.309,-0.307,-0.3043,-0.3037,-0.3039,-0.3051,-0.3066,-0.306,-0.2988,-0.3036,-0.3035,-0.3035,-0.3034,-0.3034,-0.3406,-0.3402,-0.3373,-0.3357,-0.3337,-0.3318,-0.3312,-0.3285,-0.327,-0.3245,-0.3223,-0.3208,-0.318,-0.3143,-0.3126,-0.3114,-0.31,-0.3103,-0.3104,-0.3106,-0.3111,-0.3067,-0.3109,-0.3109,-0.3108,-0.3108,-0.3108,0,-0.3457,-0.3437,-0.3422,-0.3394,-0.3381,-0.3357,-0.3332,-0.3323,-0.3311,-0.3287,-0.3271,-0.3252,-0.3234,-0.3201,-0.318,-0.3177,-0.3164,-0.3173,-0.3174,-0.317,-0.3124,-0.3125,-0.3184,-0.3184,-0.3184,-0.3184,-0.3184,-0.3184,-0.3482,-0.3476,-0.3457,-0.3441,-0.342,-0.3406,-0.3394,-0.3377,-0.3358,-0.3339,-0.3324,-0.3303,-0.3276,-0.3253,-0.3236,-0.3227,-0.3222,-0.3235,-0.3222,-0.318,-0.3173,-0.3166,-0.3167,-0.3234,-0.3234,-0.3269,-0.327,-0.327]},{"header":{"parameterUnit":"m.s-1","parameterCategory":1,"la1":30.2991,"la2":30.254,"lo1":-89.0895,"lo2":-89.0444,"dy":0.0017,"dx":0.0017,"nx":28,"ny":28,"refTime":"2024-12-18T03:00:00:Z","depth":0,"parameterNumber":3,"parameterNumberName":"V-component_of_WINDS"},"data":[0,0,0,0,0,0,0,0,0,0,0,0,0,0,0,0,0,0,0,0,0,0,0,0,0,0,0,0,0,0,0,0,0,0,0,0,0,0,0,0,0,0,0,0,0,0,0,0,0,0,0,0,0,0,0,0,0,0,1.3788,1.3788,0,1.375,1.3749,1.3749,1.3775,1.3776,1.3778,1.3779,1.3733,1.3731,1.3729,0,0,0,0,0,0,0,0,0,0,0,0,0,1.388,1.3878,1.3788,1.3788,1.3787,1.375,1.3749,1.3748,1.3775,1.3776,1.3778,1.3779,1.3734,1.3732,1.3729,0,0,0,0,0,0,0,0,0,0,0,0,0,1.384,1.3877,1.3788,1.3796,1.3796,1.375,1.3749,1.3748,1.3775,1.3776,1.3778,1.378,1.3735,1.3732,1.3728,1.367,0,0,1.3718,1.3716,0,0,0,0,0,0,0,0,1.3842,1.3837,1.3795,1.3795,1.3796,1.3769,1.3765,1.3722,1.3774,1.3783,1.3779,1.3781,1.3743,1.3739,1.3728,1.3668,1.3666,1.3717,1.3715,1.3714,1.3713,0,0,0,0,0,0,0,1.3845,1.3839,1.3773,1.3795,1.3795,1.38,1.3796,1.3757,1.3753,1.3782,1.3784,1.3779,1.3744,1.3731,1.3727,1.3665,1.3717,1.3714,1.3712,1.3711,1.3553,1.3551,0,0,0,0,0,0,1.3848,1.3841,1.3774,1.3772,1.3824,1.3797,1.3793,1.3776,1.3754,1.3752,1.3778,1.3781,1.3736,1.3731,1.3726,1.3654,1.3714,1.371,1.3708,1.3555,1.3553,1.355,0,0,0,0,0,0,1.385,1.3842,1.3776,1.3807,1.3799,1.3793,1.3774,1.3774,1.3761,1.3751,1.3749,1.3766,1.3738,1.3731,1.3684,1.3653,1.3709,1.3706,1.3558,1.3554,1.3552,1.3511,0,0,0,0,0,0,1.3852,1.3842,1.3821,1.3806,1.3797,1.3736,1.3772,1.3772,1.3756,1.3759,1.3739,1.3737,1.3739,1.3689,1.368,1.3649,1.3703,1.356,1.3556,1.3553,1.3515,1.3507,1.35,0,0,0,0,0,1.3855,1.3811,1.382,1.3812,1.3771,1.3734,1.3728,1.3732,1.3754,1.3731,1.3724,1.3738,1.3658,1.3684,1.3674,1.3641,1.3562,1.3557,1.3553,1.3518,1.3508,1.35,0,0,0,0,0,0,1.3821,1.3809,1.3819,1.3769,1.3752,1.3739,1.3711,1.3722,1.3698,1.3702,1.3706,1.3701,1.3651,1.3642,1.3671,1.3583,1.3613,1.3606,1.359,1.3581,1.3573,1.3575,1.37,0,0,0,0,0,1.3808,1.378,1.3771,1.3727,1.3719,1.3716,1.37,1.3705,1.3687,1.368,1.3669,1.365,1.362,1.36,1.3573,1.3515,1.3509,1.3487,1.348,1.3474,1.3467,1.3432,1.3422,1.3535,1.3535,1.3535,0,0,1.3779,1.377,1.3752,1.372,1.3708,1.3677,1.371,1.3677,1.3653,1.3674,1.3628,1.362,1.3599,1.3546,1.3521,1.3536,1.3435,1.3468,1.3463,1.3459,1.3426,1.3416,1.3406,1.3532,1.3532,1.3533,0,0,1.3712,1.3703,1.3664,1.3652,1.3633,1.3632,1.3623,1.3607,1.3603,1.3558,1.3573,1.3544,1.3494,1.3477,1.3462,1.3388,1.3399,1.3379,1.3338,1.3305,1.3296,1.3288,1.3258,1.3248,1.3373,1.3373,1.3373,0,1.3678,1.3634,1.3643,1.3608,1.3592,1.3612,1.3571,1.3558,1.3531,1.3519,1.3537,1.3473,1.346,1.3402,1.3384,1.3372,1.3359,1.338,1.3297,1.3289,1.3282,1.3253,1.3243,1.337,1.3371,1.3371,1.3371,0,1.3592,1.3562,1.3532,1.3507,1.3488,1.3451,1.3451,1.3431,1.3438,1.3434,1.3386,1.3372,1.3341,1.3328,1.3334,1.327,1.3279,1.3297,1.3327,1.3268,1.3241,1.3231,1.3367,1.3368,1.3368,1.3369,0,0,1.3499,1.348,1.3468,1.3456,1.3438,1.3413,1.3376,1.3347,1.3328,1.3309,1.3276,1.3233,1.3249,1.3232,1.3236,1.3207,1.3145,1.3228,1.3227,1.321,1.307,1.3054,1.3042,1.3154,1.3152,1.315,1.3071,0,1.3428,1.3365,1.3371,1.3309,1.3279,1.3298,1.3265,1.3249,1.3244,1.3217,1.3211,1.3179,1.3205,1.3194,1.3167,1.3159,1.3117,1.3165,1.3119,1.3118,1.3121,1.3029,1.3012,1.2938,1.3061,1.3059,1.3058,0,1.3336,1.3315,1.325,1.3235,1.3223,1.3193,1.3166,1.3141,1.3122,1.3121,1.3102,1.311,1.307,1.3104,1.3047,1.3079,1.3062,1.3055,1.3052,1.3045,1.3082,1.3016,1.2915,1.2902,1.3042,1.3044,1.3045,0,1.327,1.3226,1.3181,1.3171,1.3153,1.3131,1.3122,1.3105,1.3087,1.3063,1.3051,1.3022,1.3006,1.2982,1.2982,1.3007,1.2923,1.2958,1.2918,1.2918,1.2896,1.2897,1.2787,1.2891,1.2891,1.2891,1.2891,0,1.3188,1.3147,1.3151,1.3123,1.3077,1.3085,1.3038,1.3032,1.3017,1.2986,1.3001,1.2971,1.2975,1.2944,1.2944,1.2895,1.2888,1.2883,1.2883,1.288,1.288,1.2865,1.2869,1.2888,1.2889,1.289,1.289,0,1.3106,1.3107,1.3059,1.3047,1.3042,1.3009,1.2997,1.2969,1.2967,1.2927,1.2918,1.2913,1.2878,1.2877,1.2836,1.2836,1.2775,1.2782,1.2781,1.2781,1.274,1.2743,1.2615,1.2597,1.2715,1.2714,1.2713,0,1.3051,1.302,1.3005,1.2986,1.2976,1.2946,1.2928,1.2934,1.2913,1.2889,1.2864,1.2831,1.2804,1.2747,1.2738,1.2706,1.271,1.2668,1.2705,1.2703,1.2705,1.2706,1.2701,1.2659,1.2658,1.2657,1.2656,0,1.2953,1.2956,1.293,1.2903,1.2881,1.2861,1.2841,1.2825,1.2828,1.2805,1.277,1.2749,1.2708,1.2673,1.2643,1.2632,1.2642,1.2645,1.2633,1.2628,1.2627,1.2623,1.2757,1.2647,1.2648,1.2648,1.2649,1.2649,1.2881,1.2853,1.2838,1.2808,1.2794,1.2776,1.2749,1.2743,1.2715,1.2683,1.2688,1.2648,1.2629,1.2589,1.2575,1.2542,1.2556,1.2541,1.2536,1.2531,1.2525,1.2636,1.2537,1.2537,1.2538,1.2538,1.2538,0,1.2781,1.2772,1.2745,1.2717,1.2693,1.271,1.2689,1.2666,1.2632,1.2614,1.2588,1.2546,1.2513,1.2502,1.2469,1.2445,1.2449,1.2435,1.2435,1.2432,1.2516,1.2527,1.2432,1.2432,1.2432,1.2432,1.2433,1.2433,1.2725,1.2679,1.2679,1.2625,1.2617,1.2579,1.2565,1.2547,1.2533,1.2486,1.2459,1.2453,1.2437,1.2403,1.2372,1.237,1.2355,1.2339,1.2338,1.2416,1.2426,1.2436,1.2447,1.2337,1.2336,1.2256,1.2255,1.2255]}]]